Tracking 28790 objects as of 19-Apr-2024
HD Live streaming from Space Station
objects crossing your sky now

STARLINK-4600

Track STARLINK-4600 now!
10-day predictions
STARLINK-4600 is classified as:


NORAD ID: 53628
Int'l Code: 2022-104AS
Perigee: 545.9 km
Apogee: 547.9 km
Inclination: 53.2 °
Period: 95.4 minutes
Semi major axis: 6917 km
RCS: Unknown
Launch date: August 28, 2022
Source: United States (US)
Launch site: AIR FORCE EASTERN TEST RANGE (AFETR)
Your satellite tracking list
Your tracking list is empty




NASA's NSSDC Master Catalog

Two Line Element Set (TLE):
1 53628U 22104AS  24109.35186874 -.00001020  00000-0 -46041-4 0  9995
2 53628  53.2164  92.7271 0001411 108.2803 251.8343 15.08834743 91542
Source of the keplerian elements: AFSPC